EDT,Max TemperatureF,Mean TemperatureF,Min TemperatureF,Max Dew PointF,MeanDew PointF,Min DewpointF,Max Humidity, Mean Humidity, Min Humidity, Max Sea Level PressureIn, Mean Sea Level PressureIn, Min Sea Level PressureIn, Max VisibilityMiles, Mean VisibilityMiles, Min VisibilityMiles, Max Wind SpeedMPH, Mean Wind SpeedMPH, Max Gust SpeedMPH,PrecipitationIn, CloudCover, Events, WindDirDegrees
2013-4-1,55,44,30,43,34,10,100,79,42,29.80,29.60,29.48,10,8,2,14,3,23,0.18,7,Rain-Snow,273
2013-4-2,36,28,21,14,10,5,72,45,31,29.83,29.77,29.72,10,10,10,15,8,29,0.00,5,,276
2013-4-3,44,34,26,20,9,5,78,38,21,30.08,29.90,29.81,10,10,3,22,10,34,0.00,2,Snow,291
2013-4-4,52,41,30,16,9,4,46,29,16,30.21,30.09,29.95,10,10,10,13,6,24,0.00,0,,235
2013-4-5,57,44,30,23,20,13,64,43,23,29.94,29.80,29.68,10,10,10,17,5,26,0.00,1,,270
2013-4-6,41,32,23,18,5,-2,64,36,17,30.33,30.13,29.87,10,10,9,16,8,30,0.00,2,Snow,298
2013-4-7,54,38,21,31,19,13,78,48,24,30.33,30.14,29.93,10,10,10,13,4,22,0.00,4,,178
2013-4-8,61,48,36,36,31,28,76,55,32,30.13,30.01,29.89,10,10,10,13,5,21,0.00,1,,299
2013-4-9,51,44,37,43,38,30,100,90,66,30.10,29.97,29.90,10,7,2,7,1,,0.32,6,Rain,48
2013-4-10,55,47,39,44,40,37,100,91,57,29.99,29.94,29.90,10,6,0,6,1,,0.27,8,Fog-Rain,316
2013-4-11,50,42,37,43,33,11,100,74,23,30.19,29.97,29.87,10,7,1,10,1,,0.07,7,Rain,20
2013-4-12,37,34,30,31,27,12,96,84,39,30.27,30.06,29.90,10,5,0,9,5,,0.49,8,Fog-Rain-Snow,32
2013-4-13,48,39,30,39,33,30,100,85,61,29.93,29.85,29.81,10,8,2,8,3,,0.03,8,Rain-Snow,352
2013-4-14,54,40,28,39,33,27,100,85,43,30.20,29.95,29.87,10,6,0,8,1,,0.02,7,Fog-Rain,278
2013-4-15,59,40,24,34,28,22,96,65,28,30.40,30.33,30.22,10,10,7,16,2,18,0.00,0,,158
2013-4-16,63,46,28,51,34,27,100,84,41,30.39,30.26,29.95,10,6,1,16,2,26,0.01,4,Rain,213
2013-4-17,61,48,30,51,29,23,89,46,25,30.35,30.18,29.99,10,10,10,13,8,24,0.00,0,,316
2013-4-18,54,39,25,35,27,19,96,60,33,30.49,30.34,30.13,10,10,8,13,3,20,0.00,5,,155
2013-4-19,77,62,48,60,51,34,80,68,46,30.09,29.83,29.55,10,10,10,17,6,29,0.00,7,Rain,193
2013-4-20,63,52,39,60,34,17,90,56,31,30.18,29.80,29.58,10,10,10,16,7,26,0.20,5,Rain,269
2013-4-21,51,38,25,21,16,12,81,42,22,30.71,30.50,30.21,10,10,10,15,8,23,0.00,1,,318
2013-4-22,54,36,19,28,19,0,93,62,12,30.81,30.74,30.65,10,9,0,14,2,21,0.00,0,Fog-Rain,125
2013-4-23,43,32,21,39,28,21,100,89,68,30.65,30.50,30.23,10,6,0,7,1,,0.00,4,Fog-Rain,358
2013-4-24,72,56,39,50,45,39,97,76,34,30.19,29.92,29.74,10,9,4,9,5,,0.01,5,,39
2013-4-25,61,46,30,47,30,20,96,51,22,30.31,30.04,29.75,10,10,10,15,5,26,0.00,1,Rain,292
2013-4-26,61,42,24,32,26,22,100,75,26,30.45,30.39,30.32,10,7,0,7,1,,0.00,2,Fog,279
2013-4-27,66,47,30,35,31,27,100,70,25,30.43,30.38,30.28,10,7,0,9,1,,0.00,3,Fog,129
2013-4-28,71,49,28,36,30,27,100,76,24,30.35,30.30,30.21,10,6,0,16,2,22,0.00,0,Fog,172
2013-4-29,72,52,33,41,34,31,96,66,24,30.27,30.24,30.16,10,8,1,14,2,21,0.00,0,,128
2013-4-30,75,52,30,40,33,28,100,74,22,30.38,30.29,30.25,10,6,0,16,1,23,0.00,0,Fog,123